STARLINK-1499 (45762 NORAD) Tracking and Keplerian Element Data

This shows tracking and keplerian element data for the satellite.

Feedback or suggestion? Click here.




ElementValue
Catalog45762
NameSTARLINK-1499
Epoch Orbit951
Epoch Day218.91667824
Epoch Year2020
RAAN33.9285
Inclination53.0005
Eccentricity0.0001324
Argument of Perigee28.0867
Mean Anonmoly160.3883
Mean Motion15.62712542
Decay Rate0.00067749
L11 45762U 20038AJ 20218.91667824 .00067749 00000-0 74072-3 0 9999
L22 45762 53.0005 33.9285 0001324 28.0867 160.3883 15.62712542 9519

Live tracking and technical data element details for STARLINK-1499 (NORAD 45762). STARLINK-1499 can be tracked NOW for your location showing map with azimuth and elevation plus other details from your city location.

Track the satellite on the map from your city or location and see movement details for azimuth, elevation, latitude, longitude, range, height, and movement on the map or in text.







IsCatalogInMostPopularTable: catalog: 45762, numindb: 22
Update: records affected: 1



GetName: 45762 STARLINK-1499

Hit Count: updated at: Fri, 07 Aug 2020 23:26:25 GMT